Temp_Advection
nan nan nan nan nan nan nan nan nan nan nan nan nan nan nan nan nan nan nan nan nan nan nan nan nan nan nan nan nan nan nan nan nan nan nan nan nan nan nan nan nan nan nan nan nan
nan -0 -0 -0 -0 -0 -0 -0 -0 -0 -0 -0 -0 -0 -0 -0 -1 -1 -0 1 0 0 0 0 0 0 0 0 0 0 0 -0 -0 -0 -0 -0 0 -0 -0 0 -0 -0 -0 -0 nan
nan 0 -0 -0 -0 -0 -0 -0 -0 -0 -0 -0 -0 -0 -0 -0 -1 -0 0 0 0 0 0 0 0 0 0 0 0 0 -0 -0 -0 -1 -0 0 -0 0 0 -0 -1 -1 -0 -0 nan
nan -0 -0 -0 -0 -0 -0 -0 -0 -0 -0 -0 -0 -0 -0 -0 -0 -0 0 0 0 0 0 0 0 0 0 0 0 0 -0 -0 -0 0 0 0 -0 0 -1 -1 -1 -0 0 0 nan
nan -0 -0 -0 -0 -0 -0 -0 -0 -0 -0 -0 -0 -0 -0 -0 -1 -0 0 0 0 0 0 0 -0 -0 -0 -0 0 0 -0 -0 -0 0 0 0 0 -0 -1 -1 -0 0 0 -0 nan
nan -0 -0 -0 -0 -0 -0 0 0 -0 -0 -0 0 0 0 -1 -2 0 0 0 0 0 0 0 -0 0 -0 -0 -0 -0 -0 -0 -0 0 0 0 0 -0 -1 -0 0 0 -0 -0 nan
nan -0 -0 -0 -0 -0 -0 -0 -0 0 0 0 1 1 -2 -4 -0 0 0 1 0 0 0 0 0 0 0 0 -0 0 0 -0 -0 0 -0 -0 0 -1 -2 1 -0 -0 -0 -0 nan
nan -1 -0 -0 -0 -0 -0 -0 -0 -0 -0 0 1 0 -2 -1 0 1 0 1 1 0 0 0 0 0 0 0 -0 -0 -0 -0 0 -0 -0 0 -0 -0 -0 -0 -0 -0 -0 0 nan
nan -1 -1 -0 -0 -0 -0 -0 -0 -0 -0 0 1 -0 -1 -1 -0 0 0 1 0 0 0 0 0 0 0 -0 -0 -0 0 0 -0 -0 0 0 -0 -0 -0 0 -0 -1 -1 -1 nan
nan -2 -1 -1 -1 -0 -1 -0 -0 0 0 0 -0 -1 -1 -0 0 0 0 1 0 0 1 0 0 -0 0 0 -0 -0 0 -0 -0 0 -0 0 -0 -1 -0 -0 -1 -1 -1 -1 nan
nan -2 -2 -1 -1 -1 -1 -1 -1 0 -0 -1 -0 -1 -0 0 0 0 0 0 0 1 0 0 0 -0 -0 0 0 -0 -0 -0 0 -0 -0 -0 -0 -0 0 -0 -1 -0 1 -1 nan
nan -1 -2 -2 -1 -1 -0 -0 -1 -0 -1 -4 -0 2 -1 -0 0 0 0 -0 0 0 -0 0 -0 -0 0 0 0 0 0 0 -0 -0 0 -0 -1 -1 -0 0 0 -0 0 -0 nan
nan -1 -1 -2 -1 -0 -0 -0 0 0 -0 -1 -0 -0 -0 1 0 -0 0 0 -0 -0 0 -0 -0 0 0 -0 -0 -0 0 -0 -0 0 0 -0 -0 -0 -0 -0 -1 -0 0 0 nan
nan -0 -1 -2 -1 -1 -0 -0 0 0 -0 -0 -0 0 -0 0 -0 -1 0 0 0 0 0 -0 0 -0 0 -0 -0 0 -0 -0 0 0 -0 -0 -0 -0 -0 0 -0 -0 -1 -1 nan
nan 0 -1 -1 -1 -1 -1 -0 -0 0 -0 -0 -0 0 0 -0 0 0 0 0 -0 0 -0 0 -0 0 -0 -0 -0 -0 -0 0 0 -0 -0 -0 -0 0 -0 -0 0 0 -1 -1 nan
nan -0 -1 -0 -0 0 -0 -0 0 -0 -1 -1 -0 -0 -0 -0 -0 0 0 0 0 -0 -0 -0 -0 -0 -0 -0 0 -0 -0 -0 0 -0 0 0 0 -0 -0 -0 0 0 -1 -0 nan
nan 0 0 0 0 0 -0 0 -0 -0 0 -0 -0 -0 -0 -0 -0 0 0 0 0 0 0 0 0 -0 0 -0 0 0 -0 0 -0 0 0 -0 0 -0 -0 -0 -0 -0 -1 0 nan
nan 0 0 -0 0 -0 -0 -0 -0 0 -0 -0 -0 -1 -0 -0 -0 -0 0 0 0 -0 -0 0 -0 0 0 -0 -0 0 0 -0 0 0 0 0 -0 -0 0 -0 -0 -1 -1 -0 nan
nan -0 -0 -0 -0 -0 -0 -0 -0 -0 -0 -1 -1 -0 -0 -0 -1 -0 0 -0 -1 -1 -0 0 -0 -0 -0 -0 -0 0 0 -0 -1 0 0 -0 -0 -0 -0 -0 -0 -1 -2 -1 nan
nan -0 -0 -0 -0 -0 -0 -0 -0 -0 -0 -0 -0 -0 -1 -1 -0 -0 -1 -0 -0 -0 -1 -0 -0 0 0 0 0 -0 0 -0 -0 -0 -0 -0 -0 0 -0 -0 -1 -1 -1 -0 nan
nan -0 -0 -0 -1 -2 -0 -0 -0 -0 0 0 -0 -0 -0 -0 -0 -0 -0 -0 0 -0 -0 -1 -0 -0 0 0 0 -0 -0 0 -0 -0 0 0 0 -1 -0 -0 -1 -1 -1 -1 nan
nan -0 -1 -1 -1 -0 -0 -0 -1 -0 -0 0 0 0 0 -0 -0 -0 -0 0 0 0 -0 -0 -0 -0 -0 0 0 0 0 -0 0 0 -0 -0 0 -0 -0 -1 -1 -1 -1 -0 nan
nan -0 -0 -1 -0 0 -0 -0 -0 -0 -0 -0 -0 -0 0 0 -0 -0 -0 0 -0 0 0 0 -0 -1 0 -0 -0 -0 0 1 -0 -0 -0 0 0 -1 -1 -1 -1 -1 -1 -0 nan
nan -0 -0 -1 -0 -0 -0 -0 -0 -0 -0 -0 -0 -0 -0 -0 -0 -0 -0 -0 -0 -0 0 0 -0 -0 -0 -0 -0 -1 -1 -1 -0 0 -0 0 0 -1 -1 -0 -1 -1 -1 -1 nan
nan -0 -0 -0 -0 -0 -0 -0 -0 -0 -0 -0 -0 -0 0 -0 -0 -0 -0 -0 -0 -0 -0 -0 -0 -0 -0 0 -0 -0 -1 -1 -1 -1 -0 -0 -1 -1 -1 -1 -1 -1 -1 -1 nan
nan 0 -0 0 0 0 -0 -0 -0 -0 0 -0 -0 0 -0 -0 -0 -0 -0 0 -0 -0 -0 -0 -0 -1 -1 -1 -0 0 -1 -1 -2 -1 -0 -0 -1 -0 -1 -1 -1 -1 -1 -1 nan
nan nan nan nan nan nan nan nan nan nan nan nan nan nan nan nan nan nan nan nan nan nan nan nan nan nan nan nan nan nan nan nan nan nan nan nan nan nan nan nan nan nan nan nan nan
Wind_Speed
13 13 13 14 14 15 16 16 16 16 17 18 18 18 18 18 18 19 22 15 11 13 11 10 10 9 7 7 5 5 2 3 4 7 4 2 0 1 4 5 5 8 9 9 10
16 14 14 14 15 16 16 16 15 17 18 18 20 19 18 18 21 23 20 18 14 15 15 13 11 10 6 6 6 4 3 8 5 4 3 3 3 5 4 6 6 10 14 11 10
16 15 15 15 15 16 17 17 17 17 17 18 19 19 16 16 18 5 3 9 14 15 13 13 11 10 5 5 7 5 5 4 5 12 6 4 5 7 5 9 17 14 12 8 11
17 17 18 18 18 19 19 19 19 19 19 19 20 19 14 10 5 3 6 12 15 15 14 14 13 10 6 5 7 3 9 6 3 6 6 4 4 6 18 26 24 22 19 18 17
20 20 20 19 19 20 21 21 21 21 21 21 21 19 14 8 15 12 12 15 15 15 15 15 15 9 5 6 5 4 3 8 17 17 15 14 13 12 23 32 27 26 26 27 24
22 21 20 20 21 21 21 22 23 23 22 22 21 19 11 7 10 12 18 19 17 15 16 16 9 12 5 5 6 4 5 9 11 18 14 8 7 8 21 22 19 23 27 30 29
22 21 21 21 21 22 22 23 24 23 22 22 19 13 14 27 14 13 17 21 19 15 16 15 13 11 7 2 5 3 4 5 10 6 8 8 5 12 32 22 20 17 20 24 28
26 26 25 24 23 23 23 22 22 23 21 19 15 9 13 12 13 21 19 21 20 16 13 11 12 10 6 2 3 2 1 2 2 6 3 6 7 7 10 12 18 13 10 17 23
28 28 27 27 26 26 25 23 24 20 18 15 8 9 12 10 13 14 20 22 19 16 12 11 12 6 5 4 2 1 3 4 6 4 3 6 5 5 7 11 18 24 31 26 22
31 31 31 29 26 26 26 23 19 12 9 4 4 6 10 5 5 9 19 19 17 17 12 11 7 4 3 4 7 6 5 4 4 2 2 4 15 15 25 23 30 30 36 31 28
29 30 30 29 27 24 22 18 7 4 5 10 11 17 15 6 6 10 18 22 18 16 6 5 4 10 22 8 3 4 4 4 3 4 2 9 15 18 14 20 29 36 32 30 34
31 32 32 30 27 16 12 4 7 11 18 27 32 38 38 14 6 15 20 17 11 7 7 3 14 11 5 8 7 4 4 7 5 5 7 7 14 20 20 16 25 30 30 25 29
32 34 34 31 22 6 10 4 9 10 9 11 16 13 14 25 17 16 25 20 5 8 12 10 5 8 12 6 8 6 10 5 6 3 4 4 7 5 4 5 13 22 26 24 23
34 36 38 33 9 20 1 4 10 7 5 6 2 2 3 4 6 28 28 18 5 15 8 10 7 5 7 8 8 10 10 10 5 2 4 1 6 6 7 7 5 12 14 17 17
29 34 32 24 17 16 16 10 7 3 4 4 1 3 1 4 7 5 18 10 8 7 7 8 7 12 8 6 13 6 5 7 4 4 1 1 3 7 4 4 4 7 15 13 8
30 29 24 27 23 21 18 8 1 5 8 6 4 6 4 2 3 2 6 7 6 5 2 5 2 7 10 7 12 6 5 3 2 2 3 8 6 3 3 1 3 5 17 13 5
29 24 21 24 28 21 19 5 3 4 7 8 7 8 8 4 3 3 5 7 5 6 11 1 5 3 5 6 2 6 7 0 1 3 5 2 3 8 6 4 3 6 16 19 16
25 24 12 27 23 17 11 3 3 5 5 4 7 14 3 9 4 3 2 5 3 2 1 9 5 13 7 8 7 11 8 6 7 5 3 1 5 4 2 6 8 15 19 24 26
27 15 18 29 22 10 3 2 3 6 7 12 12 4 4 7 11 7 1 4 5 10 4 4 7 2 3 5 11 5 10 7 6 2 1 3 5 3 7 5 9 16 24 25 26
29 10 27 28 17 11 3 3 4 6 8 6 5 8 7 9 11 12 7 6 9 11 9 4 4 4 3 3 1 6 8 4 3 5 5 2 3 2 7 6 10 13 18 20 24
28 6 25 21 11 15 3 3 4 9 13 4 7 6 5 5 4 5 8 4 13 11 11 9 4 2 6 5 9 5 5 3 4 4 4 4 3 6 6 5 11 12 18 19 23
19 4 21 23 10 4 2 3 7 7 11 3 3 3 2 4 4 4 5 4 11 7 7 8 4 4 5 2 5 8 9 6 4 4 2 3 2 7 10 12 15 16 17 18 21
10 5 12 14 3 4 5 5 4 5 6 5 4 3 4 4 5 2 5 7 13 9 4 6 3 4 4 3 3 2 4 10 3 3 6 7 3 7 11 15 19 18 18 19 20
7 4 7 7 6 2 4 4 6 9 2 9 4 4 4 4 3 5 7 4 19 9 3 5 2 2 2 3 4 7 13 10 6 8 5 5 9 6 11 11 16 18 17 17 19
7 3 3 3 4 4 2 3 8 6 8 8 5 0 1 3 5 3 3 8 4 7 5 4 3 4 10 9 8 9 6 9 4 6 2 1 7 10 11 11 13 15 17 19 20
5 5 4 9 8 5 3 2 6 7 3 8 4 5 3 4 6 8 3 2 5 3 2 3 3 5 6 9 12 7 8 7 10 6 6 4 7 8 12 16 18 19 19 19 19
8 5 4 6 2 2 2 3 13 14 9 6 6 4 5 5 6 17 20 18 11 2 2 2 1 2 3 9 6 2 12 4 9 12 4 5 5 10 7 9 17 20 20 19 20
Wind_Direction
345 340 333 327 323 320 316 316 316 315 313 310 307 304 303 298 291 286 280 274 258 222 209 200 185 182 177 179 168 151 96 214 227 170 240 214 196 309 288 245 226 219 242 266 271
352 347 337 330 325 321 318 318 319 319 315 312 311 309 307 302 299 291 285 258 232 209 195 194 186 181 172 179 181 150 177 215 206 193 210 209 221 303 301 269 246 241 246 252 264
351 345 333 326 321 318 318 317 316 314 312 311 310 310 308 309 311 290 280 194 180 182 189 190 187 182 186 180 197 186 216 215 233 211 212 234 247 254 246 264 244 250 261 274 271
346 339 335 332 328 325 321 319 316 312 310 309 308 308 306 297 278 206 155 158 169 181 188 185 185 175 171 197 201 223 241 214 260 223 211 216 248 253 238 247 264 269 271 266 264
350 343 337 334 330 327 324 320 316 312 310 309 307 303 303 261 248 242 201 187 188 193 197 190 184 180 179 188 172 216 247 250 256 263 260 261 241 241 258 264 265 263 260 262 259
345 340 336 332 329 326 324 319 312 306 303 304 304 298 289 256 258 230 213 205 203 202 202 199 206 206 192 194 181 192 234 262 270 253 251 227 248 222 267 273 263 259 256 253 250
340 336 333 332 330 327 324 320 312 304 298 297 295 283 268 261 253 226 215 214 209 213 207 210 207 186 182 204 238 265 300 303 244 241 229 219 252 226 257 264 275 266 260 255 249
340 337 333 330 329 325 325 322 317 309 299 292 286 252 258 262 241 226 213 206 206 205 209 209 206 206 192 164 12 310 75 312 291 163 207 165 267 272 284 262 256 247 264 268 253
341 336 332 330 328 325 324 321 319 310 299 295 251 234 263 260 246 228 214 204 195 198 196 187 183 175 142 115 343 291 235 207 307 211 150 194 270 270 316 293 268 263 277 276 259
340 333 329 325 324 322 324 326 318 310 300 289 218 251 251 246 233 216 207 199 180 175 164 181 176 137 105 150 221 186 212 224 236 221 90 256 268 271 273 275 274 271 273 270 255
349 345 339 332 331 322 324 341 335 293 282 240 271 255 273 260 234 210 192 180 180 170 170 185 177 197 206 194 157 136 184 215 242 248 318 254 269 274 264 248 261 269 265 261 260
352 348 344 336 335 332 342 35 30 304 293 281 273 258 251 247 250 210 186 170 169 179 131 113 235 223 162 190 207 190 238 257 273 248 184 273 274 275 273 253 248 257 268 261 264
352 348 345 341 342 9 3 45 343 319 270 280 260 261 263 232 234 212 192 196 154 164 185 195 199 190 183 171 196 215 220 195 225 312 261 294 275 285 278 246 263 261 271 276 265
352 347 344 343 348 337 321 305 328 321 291 277 272 315 209 188 230 222 206 187 196 193 169 233 199 143 170 204 174 234 194 211 227 143 242 350 291 309 279 294 266 288 306 293 263
356 348 350 6 5 4 331 313 308 313 331 299 59 107 203 196 327 212 203 204 171 168 152 221 180 191 193 193 176 216 157 183 171 181 347 245 240 270 275 266 294 320 349 326 276
1 0 10 7 6 353 335 326 295 53 253 345 45 359 347 260 313 52 195 209 188 160 259 228 226 168 195 187 174 135 101 73 81 167 276 202 198 262 258 234 320 344 15 10 23
360 355 3 4 352 348 342 331 65 172 349 1 341 354 317 281 300 179 173 195 180 196 232 178 216 225 163 116 94 150 138 156 296 199 240 320 178 258 264 270 356 19 31 49 56
357 349 352 352 340 337 344 61 226 360 2 357 321 309 271 10 345 340 125 198 225 102 59 209 266 182 190 179 167 186 183 162 192 193 213 332 230 249 241 14 98 79 68 65 62
0 1 359 356 353 351 14 72 348 13 342 321 327 352 346 4 358 335 199 24 33 4 251 198 244 227 191 197 153 185 219 148 102 47 187 212 274 307 20 72 70 60 55 48 56
5 13 9 359 4 9 62 54 2 343 324 324 316 40 358 351 357 353 10 3 351 3 322 294 260 195 163 129 155 164 151 162 195 173 220 227 266 212 1 47 58 48 47 48 62
12 28 1 6 22 47 69 319 293 302 335 334 13 334 348 343 311 319 5 56 12 347 341 4 252 257 124 189 173 160 199 197 154 171 168 153 236 2 299 65 75 55 46 42 56
14 28 355 11 46 32 15 254 299 303 331 307 262 272 289 296 294 328 12 8 12 348 348 4 304 263 194 232 183 194 194 184 172 189 137 127 270 29 41 64 64 51 45 45 54
1 336 357 18 54 355 326 301 284 313 325 334 321 1 329 293 309 3 355 350 354 345 3 357 5 317 166 323 359 269 214 211 134 114 190 181 196 59 47 45 43 43 36 37 44
8 2 347 32 43 65 333 292 316 315 317 345 291 341 342 319 19 307 337 347 337 325 26 332 322 351 296 352 324 311 325 341 258 229 189 205 145 59 38 35 24 24 28 31 34
23 27 9 313 337 337 244 274 304 333 348 320 303 119 239 303 315 352 327 326 309 4 39 42 293 358 292 264 257 267 10 344 348 18 287 60 94 22 24 21 29 21 17 19 20
24 356 330 288 290 316 306 282 311 334 284 303 241 291 165 199 199 280 279 149 266 326 71 360 265 313 286 277 209 221 27 22 50 358 41 88 88 8 24 18 28 23 15 11 8
347 308 284 273 282 286 262 317 312 311 283 292 293 284 258 255 263 273 265 260 248 212 338 257 133 33 248 356 318 177 0 24 91 35 357 34 6 354 8 24 34 18 12 359 360
Height
1529 1527 1525 1523 1521 1520 1518 1516 1514 1512 1509 1508 1506 1504 1502 1500 1498 1497 1494 1495 1495 1496 1498 1500 1501 1502 1504 1506 1507 1508 1515 1516 1510 1513 1503 1501 1501 1501 1500 1501 1501 1500 1499 1499 1499
1528 1525 1524 1521 1520 1518 1515 1513 1511 1509 1507 1505 1503 1501 1499 1497 1494 1490 1489 1488 1490 1492 1495 1498 1500 1502 1504 1505 1507 1507 1513 1507 1502 1502 1501 1500 1500 1499 1499 1498 1498 1497 1497 1497 1497
1528 1524 1522 1520 1517 1515 1513 1511 1509 1506 1504 1502 1500 1498 1496 1494 1491 1485 1483 1483 1487 1492 1494 1496 1499 1502 1504 1505 1505 1505 1505 1501 1498 1498 1499 1499 1498 1498 1497 1492 1490 1491 1493 1494 1495
1526 1523 1521 1518 1515 1513 1510 1508 1506 1504 1501 1499 1496 1494 1493 1493 1494 1484 1484 1485 1487 1490 1492 1494 1497 1499 1502 1503 1502 1504 1499 1499 1497 1497 1498 1498 1496 1494 1492 1484 1486 1488 1490 1490 1491
1525 1522 1519 1515 1513 1510 1508 1505 1502 1499 1497 1495 1493 1491 1490 1489 1482 1482 1483 1484 1486 1488 1490 1491 1494 1496 1498 1498 1499 1500 1497 1497 1496 1496 1494 1494 1493 1492 1482 1480 1483 1485 1485 1485 1486
1524 1521 1517 1514 1511 1508 1505 1502 1498 1495 1493 1491 1489 1487 1487 1487 1477 1477 1479 1481 1483 1485 1487 1489 1490 1493 1494 1495 1496 1495 1495 1493 1492 1491 1491 1490 1488 1490 1472 1474 1476 1477 1478 1479 1480
1522 1519 1515 1512 1508 1505 1502 1498 1494 1491 1488 1486 1485 1483 1482 1472 1473 1473 1474 1477 1480 1482 1484 1486 1488 1490 1491 1493 1492 1492 1493 1491 1485 1484 1486 1485 1486 1480 1467 1472 1471 1471 1471 1472 1473
1521 1517 1514 1510 1506 1502 1498 1494 1489 1485 1482 1481 1481 1480 1473 1467 1466 1468 1470 1472 1476 1479 1482 1484 1487 1488 1490 1491 1492 1493 1494 1492 1481 1481 1481 1483 1478 1470 1469 1468 1467 1467 1467 1467 1467
1519 1514 1510 1507 1504 1499 1495 1491 1486 1481 1478 1477 1478 1478 1468 1463 1462 1463 1466 1469 1473 1477 1480 1482 1485 1486 1488 1493 1495 1495 1492 1495 1485 1479 1479 1481 1476 1468 1467 1467 1464 1461 1459 1461 1461
1516 1511 1507 1503 1499 1495 1491 1487 1481 1478 1476 1476 1477 1480 1464 1460 1459 1459 1463 1468 1471 1474 1478 1480 1482 1484 1488 1491 1487 1488 1493 1492 1486 1479 1479 1479 1473 1467 1465 1465 1457 1453 1450 1452 1454
1514 1508 1503 1499 1495 1491 1487 1484 1483 1479 1475 1472 1470 1465 1461 1460 1458 1458 1459 1464 1469 1471 1475 1477 1481 1477 1469 1476 1477 1481 1485 1483 1483 1478 1480 1474 1467 1460 1459 1459 1452 1442 1442 1441 1443
1513 1507 1501 1496 1492 1488 1486 1485 1487 1487 1469 1460 1455 1452 1454 1458 1456 1455 1458 1461 1463 1466 1470 1478 1471 1469 1473 1476 1477 1480 1483 1483 1480 1476 1478 1471 1462 1454 1447 1445 1442 1437 1432 1433 1434
1511 1505 1499 1493 1489 1488 1487 1487 1486 1484 1475 1449 1445 1445 1445 1450 1451 1449 1455 1455 1457 1464 1464 1466 1461 1460 1467 1474 1476 1477 1477 1481 1477 1475 1474 1472 1458 1450 1440 1437 1434 1431 1427 1427 1429
1511 1504 1497 1491 1490 1487 1486 1486 1485 1483 1479 1451 1445 1443 1444 1444 1446 1444 1447 1452 1455 1456 1463 1461 1456 1459 1464 1466 1469 1472 1470 1470 1474 1478 1476 1470 1461 1451 1435 1435 1430 1426 1426 1423 1424
1511 1504 1497 1491 1493 1489 1488 1484 1483 1484 1510 1447 1445 1446 1444 1446 1445 1441 1443 1446 1449 1452 1456 1448 1452 1455 1457 1456 1460 1463 1464 1468 1471 1476 1475 1473 1471 1447 1441 1432 1428 1425 1424 1420 1420
1510 1505 1500 1495 1493 1491 1486 1484 1484 1495 1500 1451 1448 1449 1447 1444 1443 1442 1444 1446 1446 1450 1448 1448 1447 1448 1447 1450 1454 1456 1463 1468 1469 1471 1483 1465 1460 1447 1437 1430 1428 1427 1425 1420 1419
1511 1506 1502 1498 1493 1489 1485 1484 1497 1503 1457 1463 1463 1458 1454 1447 1443 1442 1443 1445 1448 1449 1447 1448 1446 1443 1442 1448 1452 1455 1462 1485 1483 1471 1467 1475 1469 1442 1435 1430 1429 1430 1429 1424 1422
1511 1505 1503 1499 1492 1488 1485 1487 1495 1473 1477 1473 1470 1460 1453 1451 1446 1444 1445 1447 1445 1448 1451 1447 1447 1438 1435 1436 1444 1449 1447 1466 1470 1468 1466 1472 1462 1437 1433 1430 1431 1432 1433 1429 1426
1509 1504 1503 1497 1490 1487 1487 1498 1490 1492 1492 1483 1467 1462 1455 1457 1462 1450 1446 1454 1456 1455 1445 1446 1439 1432 1432 1431 1434 1450 1446 1449 1470 1482 1464 1460 1448 1438 1435 1434 1435 1436 1434 1434 1433
1507 1502 1501 1497 1492 1489 1490 1493 1497 1497 1492 1487 1478 1474 1471 1471 1466 1461 1454 1467 1463 1462 1460 1443 1436 1428 1429 1430 1434 1437 1440 1450 1453 1466 1466 1456 1451 1438 1442 1442 1442 1442 1441 1441 1439
1507 1503 1504 1499 1496 1493 1505 1504 1500 1495 1493 1491 1486 1484 1483 1481 1475 1465 1467 1470 1468 1463 1458 1455 1437 1430 1429 1430 1430 1436 1436 1438 1437 1447 1450 1455 1444 1454 1452 1447 1450 1451 1450 1447 1444
1508 1508 1506 1501 1502 1506 1513 1508 1501 1496 1493 1491 1488 1487 1486 1482 1478 1472 1471 1472 1469 1467 1463 1459 1452 1430 1425 1421 1422 1423 1428 1433 1435 1441 1447 1453 1459 1459 1458 1455 1455 1455 1455 1454 1451
1511 1511 1508 1505 1512 1513 1510 1506 1502 1497 1495 1492 1489 1489 1487 1485 1483 1476 1475 1472 1471 1467 1466 1465 1455 1442 1424 1429 1428 1429 1427 1425 1433 1437 1448 1436 1451 1462 1462 1461 1461 1459 1459 1458 1456
1514 1515 1511 1509 1513 1515 1514 1508 1503 1498 1495 1494 1492 1489 1488 1485 1483 1480 1476 1473 1472 1469 1467 1464 1460 1460 1461 1464 1460 1450 1446 1439 1430 1425 1430 1441 1451 1462 1466 1467 1467 1465 1463 1462 1460
1518 1520 1519 1517 1513 1514 1514 1509 1504 1500 1498 1495 1491 1490 1492 1489 1485 1481 1479 1476 1472 1471 1469 1471 1473 1465 1463 1461 1464 1454 1457 1453 1442 1447 1433 1446 1454 1477 1475 1474 1474 1472 1469 1465 1462
1521 1522 1519 1516 1514 1513 1510 1507 1503 1501 1500 1494 1493 1489 1491 1495 1492 1488 1484 1482 1478 1474 1475 1476 1485 1469 1463 1448 1449 1449 1462 1459 1467 1472 1459 1459 1473 1483 1480 1479 1477 1476 1474 1473 1469
1521 1520 1518 1514 1512 1512 1508 1506 1504 1502 1495 1494 1491 1490 1488 1485 1484 1481 1479 1477 1477 1478 1477 1479 1487 1482 1473 1456 1447 1450 1477 1470 1480 1485 1480 1482 1486 1485 1480 1483 1483 1480 1479 1478 1473